| time (UTC) | temp F | wind direction | speed MPH | gust MPH | rain 1hr in | rain 24hr in | rain mn in | humidity % | barometer mb |
| 20260504024122 | 65 | 174 | 7.0 | 21.0 | 0.00 | 7.83 | 0.00 | 51 | 1010.0 |
| 20260504023635 | 65 | 161 | 8.0 | 21.0 | 0.00 | 7.83 | 0.00 | 51 | 1009.8 |
| 20260504023120 | 65 | 184 | 6.0 | 16.0 | 0.00 | 7.83 | 0.00 | 51 | 1009.9 |
| 20260504022614 | 64 | 162 | 6.0 | 16.0 | 0.00 | 7.83 | 0.00 | 53 | 1009.8 |
| 20260504022118 | 64 | 161 | 7.0 | 14.0 | 0.00 | 7.83 | 0.00 | 51 | 1009.9 |
| 20260504021631 | 64 | 124 | 5.0 | 19.0 | 0.00 | 7.83 | 0.00 | 50 | 1009.9 |
| 20260504021117 | 64 | 102 | 6.0 | 23.0 | 0.00 | 7.83 | 0.00 | 49 | 1010.2 |
| 20260504020631 | 64 | 180 | 8.0 | 16.0 | 0.00 | 7.83 | 0.00 | 50 | 1010.0 |
| 20260504020117 | 64 | 122 | 9.0 | 24.0 | 0.00 | 7.87 | 0.00 | 51 | 1009.7 |
| 20260504015630 | 65 | 122 | 5.0 | 15.0 | 0.00 | 7.87 | 0.00 | 51 | 1009.7 |
| 20260504015117 | 65 | 143 | 8.0 | 15.0 | 0.00 | 7.87 | 0.00 | 51 | 1009.7 |
| 20260504014626 | 65 | 26 | 3.0 | 17.0 | 0.00 | 7.87 | 0.00 | 53 | 1009.7 |
| 20260504014113 | 64 | 203 | 7.0 | 16.0 | 0.00 | 7.87 | 0.00 | 55 | 1009.9 |
| 20260504013626 | 63 | 107 | 6.0 | 20.0 | 0.00 | 7.87 | 0.00 | 58 | 1009.8 |
| 20260504013132 | 64 | 153 | 9.0 | 20.0 | 0.00 | 7.87 | 0.00 | 58 | 1009.7 |
| 20260504012622 | 63 | 168 | 9.0 | 27.0 | 0.00 | 7.87 | 0.00 | 58 | 1009.6 |
| 20260504012135 | 63 | 121 | 11.0 | 27.0 | 0.00 | 7.87 | 0.00 | 59 | 1009.5 |
| 20260504011622 | 63 | 136 | 10.0 | 20.0 | 0.00 | 7.87 | 0.00 | 58 | 1009.6 |
| 20260504011156 | 63 | 132 | 6.0 | 24.0 | 0.00 | 7.87 | 0.00 | 60 | 1009.4 |
| 20260504010638 | 63 | 115 | 8.0 | 24.0 | 0.00 | 7.87 | 0.00 | 61 | 1009.0 |
| 20260504010130 | 63 | 167 | 10.0 | 21.0 | 0.00 | 7.87 | 0.00 | 60 | 1008.9 |
| 20260504005638 | 63 | 128 | 5.0 | 21.0 | 0.00 | 7.87 | 0.00 | 61 | 1009.0 |
| 20260504005130 | 62 | 139 | 8.0 | 26.0 | 0.00 | 7.87 | 0.00 | 62 | 1009.0 |
| 20260504004617 | 62 | 162 | 4.0 | 28.0 | 0.00 | 7.87 | 0.00 | 63 | 1008.8 |
| 20260504004152 | 63 | 100 | 9.0 | 25.0 | 0.00 | 7.87 | 0.00 | 62 | 1008.9 |
| 20260504003617 | 63 | 158 | 8.0 | 17.0 | 0.00 | 7.87 | 0.00 | 64 | 1008.8 |
| 20260504003110 | 62 | 125 | 7.0 | 19.0 | 0.00 | 7.87 | 0.00 | 63 | 1008.6 |
| 20260504002622 | 62 | 122 | 10.0 | 20.0 | 0.00 | 7.87 | 0.00 | 63 | 1008.5 |
| 20260504002152 | 62 | 203 | 8.0 | 21.0 | 0.00 | 7.87 | 0.00 | 63 | 1008.6 |
| 20260504001618 | 62 | 46 | 10.0 | 21.0 | 0.00 | 7.87 | 0.00 | 63 | 1008.5 |
| 20260504001131 | 62 | 109 | 9.0 | 21.0 | 0.00 | 7.87 | 0.00 | 63 | 1008.4 |
| 20260504000618 | 62 | 118 | 9.0 | 23.0 | 0.00 | 7.87 | 0.00 | 63 | 1008.2 |
| 20260504000152 | 62 | 85 | 10.0 | 22.0 | 0.00 | 7.91 | 0.00 | 63 | 1008.6 |
| 20260503235618 | 62 | 123 | 9.0 | 22.0 | 0.00 | 7.91 | 0.00 | 65 | 1008.2 |
| 20260503235131 | 61 | 240 | 7.0 | 15.0 | 0.00 | 7.91 | 0.00 | 66 | 1008.2 |
| 20260503234613 | 61 | 215 | 8.0 | 17.0 | 0.00 | 7.91 | 0.00 | 67 | 1008.2 |
| 20260503234122 | 60 | 96 | 7.0 | 17.0 | 0.00 | 7.91 | 0.00 | 68 | 1008.2 |
| 20260503233636 | 60 | 136 | 6.0 | 14.0 | 0.00 | 7.91 | 0.00 | 68 | 1008.0 |
| 20260503233142 | 60 | 129 | 4.0 | 22.0 | 0.00 | 7.91 | 0.00 | 68 | 1007.9 |
| 20260503232633 | 60 | 124 | 9.0 | 22.0 | 0.00 | 7.91 | 0.00 | 67 | 1007.9 |
| 20260503232118 | 60 | 153 | 6.0 | 20.0 | 0.00 | 7.91 | 0.00 | 67 | 1007.8 |
| 20260503231628 | 60 | 95 | 6.0 | 18.0 | 0.00 | 7.91 | 0.00 | 67 | 1007.7 |
| 20260503231112 | 60 | 135 | 8.0 | 20.0 | 0.00 | 7.91 | 0.00 | 66 | 1007.7 |
| 20260503230613 | 60 | 185 | 10.0 | 19.0 | 0.00 | 7.91 | 0.00 | 66 | 1007.5 |
| 20260503225634 | 60 | 135 | 5.0 | 14.0 | 0.00 | 7.91 | 0.00 | 65 | 1007.4 |
| 20260503225119 | 60 | 89 | 4.0 | 20.0 | 0.00 | 7.91 | 0.00 | 65 | 1007.3 |
| 20260503224633 | 60 | 114 | 7.0 | 20.0 | 0.00 | 7.91 | 0.00 | 66 | 1007.3 |
| 20260503224144 | 60 | 131 | 4.0 | 14.0 | 0.00 | 7.91 | 0.00 | 66 | 1007.0 |
| 20260503223635 | 60 | 129 | 5.0 | 15.0 | 0.00 | 7.91 | 0.00 | 65 | 1007.2 |
| 20260503223119 | 60 | 136 | 6.0 | 22.0 | 0.00 | 7.91 | 0.00 | 65 | 1007.1 |
| 20260503222611 | 60 | 122 | 11.0 | 21.0 | 0.00 | 7.91 | 0.00 | 63 | 1007.0 |
| 20260503222122 | 60 | 194 | 8.0 | 21.0 | 0.00 | 7.91 | 0.00 | 63 | 1007.0 |
| 20260503221613 | 60 | 144 | 8.0 | 17.0 | 0.00 | 7.91 | 0.00 | 63 | 1006.6 |
| 20260503221111 | 60 | 107 | 8.0 | 17.0 | 0.00 | 7.91 | 0.00 | 65 | 1006.4 |
| 20260503220621 | 60 | 125 | 4.0 | 20.0 | 0.00 | 7.91 | 0.00 | 67 | 1006.4 |
| 20260503220132 | 60 | 231 | 9.0 | 23.0 | 0.00 | 8.11 | 0.00 | 67 | 1006.1 |
| 20260503215616 | 60 | 134 | 6.0 | 15.0 | 0.00 | 8.11 | 0.00 | 70 | 1005.9 |
| 20260503215129 | 60 | 117 | 8.0 | 17.0 | 0.00 | 8.11 | 0.00 | 72 | 1006.0 |
| 20260503214611 | 60 | 118 | 6.0 | 17.0 | 0.00 | 8.11 | 0.00 | 72 | 1006.0 |
| 20260503213637 | 60 | 158 | 9.0 | 21.0 | 0.00 | 8.11 | 0.00 | 69 | 1005.5 |
| 20260503213138 | 60 | 117 | 8.0 | 15.0 | 0.00 | 8.11 | 0.00 | 71 | 1005.5 |
| 20260503212628 | 60 | 96 | 6.0 | 10.0 | 0.00 | 8.11 | 0.00 | 71 | 1005.4 |
| 20260503212113 | 60 | 134 | 4.0 | 14.0 | 0.00 | 8.11 | 0.00 | 72 | 1005.4 |
| 20260503211621 | 60 | 132 | 2.0 | 14.0 | 0.00 | 8.11 | 0.00 | 73 | 1004.9 |
| 20260503211130 | 60 | 153 | 3.0 | 10.0 | 0.00 | 8.11 | 0.00 | 73 | 1004.8 |
| 20260503210614 | 60 | 128 | 3.0 | 9.0 | 0.00 | 8.11 | 0.00 | 73 | 1004.7 |
| 20260503210134 | 60 | 145 | 3.0 | 10.0 | 0.00 | 8.11 | 0.00 | 73 | 1004.8 |
| 20260503205622 | 60 | 117 | 5.0 | 12.0 | 0.00 | 8.11 | 0.00 | 73 | 1004.8 |
| 20260503205129 | 60 | 139 | 4.0 | 12.0 | 0.00 | 8.11 | 0.00 | 73 | 1004.7 |
| 20260503204611 | 60 | 167 | 2.0 | 9.0 | 0.00 | 8.11 | 0.00 | 73 | 1004.8 |
| 20260503204143 | 60 | 153 | 4.0 | 9.0 | 0.00 | 8.11 | 0.00 | 73 | 1004.8 |
| 20260503203631 | 60 | 151 | 3.0 | 10.0 | 0.00 | 8.11 | 0.00 | 73 | 1004.6 |
| 20260503203112 | 60 | 152 | 4.0 | 11.0 | 0.00 | 8.11 | 0.00 | 73 | 1004.7 |
| 20260503202622 | 60 | 129 | 5.0 | 11.0 | 0.00 | 8.11 | 0.00 | 73 | 1004.6 |
| 20260503202133 | 60 | 94 | 4.0 | 12.0 | 0.00 | 8.11 | 0.00 | 72 | 1004.8 |
| 20260503201615 | 60 | 123 | 5.0 | 12.0 | 0.00 | 8.11 | 0.00 | 73 | 1004.6 |
| 20260503201121 | 60 | 138 | 4.0 | 13.0 | 0.00 | 8.11 | 0.00 | 73 | 1004.6 |
| 20260503200652 | 60 | 163 | 4.0 | 14.0 | 0.00 | 8.11 | 0.00 | 73 | 1004.6 |
| 20260503200114 | 60 | 72 | 4.0 | 16.0 | 0.00 | 8.11 | 0.00 | 73 | 1004.6 |
| 20260503195645 | 60 | 137 | 6.0 | 16.0 | 0.00 | 8.11 | 0.00 | 73 | 1004.7 |
| 20260503195134 | 60 | 115 | 3.0 | 11.0 | 0.00 | 8.11 | 0.00 | 73 | 1004.6 |
| 20260503194616 | 60 | 146 | 4.0 | 17.0 | 0.00 | 8.11 | 0.00 | 73 | 1004.4 |
| 20260503194147 | 60 | 119 | 8.0 | 17.0 | 0.00 | 8.11 | 0.00 | 73 | 1004.5 |
| 20260503193630 | 60 | 162 | 2.0 | 7.0 | 0.00 | 8.11 | 0.00 | 74 | 1004.4 |
| 20260503193113 | 60 | 127 | 1.0 | 8.0 | 0.00 | 8.11 | 0.00 | 74 | 1004.2 |
| 20260503192622 | 60 | 160 | 2.0 | 9.0 | 0.00 | 8.11 | 0.00 | 74 | 1004.3 |
| 20260503192133 | 60 | 103 | 4.0 | 12.0 | 0.00 | 8.11 | 0.00 | 73 | 1004.3 |
| 20260503191615 | 60 | 115 | 4.0 | 10.0 | 0.00 | 8.11 | 0.00 | 74 | 1004.3 |
| 20260503191146 | 60 | 151 | 5.0 | 10.0 | 0.00 | 8.11 | 0.00 | 74 | 1004.5 |
| 20260503190635 | 60 | 124 | 2.0 | 8.0 | 0.00 | 8.11 | 0.00 | 74 | 1004.5 |
| 20260503190116 | 60 | 123 | 3.0 | 16.0 | 0.00 | 8.11 | 0.00 | 73 | 1004.6 |
| 20260503185124 | 60 | 140 | 5.0 | 13.0 | 0.00 | 8.11 | 0.00 | 73 | 1004.5 |
| 20260503184634 | 61 | 129 | 5.0 | 13.0 | 0.00 | 8.11 | 0.00 | 74 | 1004.5 |
| 20260503184118 | 61 | 122 | 3.0 | 16.0 | 0.00 | 8.11 | 0.00 | 74 | 1004.2 |
| 20260503183627 | 61 | 129 | 7.0 | 16.0 | 0.00 | 8.11 | 0.00 | 73 | 1004.3 |
| 20260503183134 | 61 | 129 | 7.0 | 15.0 | 0.00 | 8.11 | 0.00 | 73 | 1004.2 |
| 20260503182617 | 61 | 130 | 5.0 | 10.0 | 0.00 | 8.11 | 0.00 | 73 | 1004.1 |
| 20260503182127 | 61 | 147 | 5.0 | 14.0 | 0.00 | 8.11 | 0.00 | 74 | 1004.0 |
| 20260503181633 | 61 | 87 | 4.0 | 14.0 | 0.00 | 8.11 | 0.00 | 74 | 1004.1 |
| 20260503181115 | 61 | 122 | 2.0 | 11.0 | 0.00 | 8.11 | 0.00 | 74 | 1004.1 |
| 20260503180625 | 61 | 130 | 3.0 | 12.0 | 0.00 | 8.11 | 0.00 | 74 | 1004.1 |
| 20260503180133 | 61 | 115 | 5.0 | 11.0 | 0.00 | 8.11 | 0.00 | 74 | 1004.1 |
| 20260503175617 | 61 | 124 | 4.0 | 11.0 | 0.00 | 8.11 | 0.00 | 74 | 1004.1 |
| 20260503175128 | 61 | 174 | 3.0 | 10.0 | 0.00 | 8.11 | 0.00 | 75 | 1004.2 |
| 20260503174611 | 61 | 107 | 3.0 | 12.0 | 0.00 | 8.11 | 0.00 | 75 | 1004.2 |
| 20260503174133 | 61 | 114 | 4.0 | 12.0 | 0.00 | 8.11 | 0.00 | 75 | 1004.1 |
| 20260503173619 | 61 | 140 | 6.0 | 14.0 | 0.00 | 8.11 | 0.00 | 74 | 1004.0 |
| 20260503173149 | 61 | 128 | 5.0 | 13.0 | 0.00 | 8.11 | 0.00 | 74 | 1004.0 |
| 20260503172631 | 61 | 103 | 4.0 | 13.0 | 0.00 | 8.11 | 0.00 | 75 | 1004.2 |
| 20260503172120 | 61 | 129 | 4.0 | 10.0 | 0.00 | 8.11 | 0.00 | 75 | 1003.9 |
| 20260503171630 | 61 | 102 | 3.0 | 12.0 | 0.00 | 8.11 | 0.00 | 75 | 1004.0 |
| 20260503171114 | 61 | 106 | 5.0 | 10.0 | 0.00 | 8.11 | 0.00 | 76 | 1003.9 |
| 20260503170622 | 61 | 127 | 3.0 | 9.0 | 0.00 | 8.11 | 0.00 | 76 | 1003.9 |
| 20260503170153 | 61 | 135 | 5.0 | 12.0 | 0.00 | 8.11 | 0.00 | 76 | 1003.8 |
| 20260503160113 | 61 | 136 | 6.0 | 14.0 | 0.00 | 8.11 | 0.00 | 77 | 1003.1 |
| 20260503150611 | 62 | 124 | 3.0 | 13.0 | 0.00 | 8.11 | 0.00 | 75 | 1002.9 |
| 20260503150120 | 62 | 58 | 5.0 | 13.0 | 0.00 | 8.11 | 0.00 | 75 | 1003.0 |
| 20260503140121 | 61 | 163 | 3.0 | 13.0 | 0.00 | 8.11 | 1.62 | 79 | 1002.8 |
| 20260503131118 | 60 | 134 | 2.0 | 6.0 | 0.00 | 8.11 | 1.62 | 83 | 1003.0 |
| 20260503130627 | 61 | 117 | 2.0 | 6.0 | 0.00 | 8.11 | 1.62 | 83 | 1002.8 |
| 20260503130136 | 61 | 207 | 2.0 | 8.0 | 0.00 | 8.11 | 1.62 | 84 | 1002.9 |
| 20260503120111 | 62 | 160 | 2.0 | 8.0 | 0.04 | 8.11 | 1.62 | 87 | 1002.0 |
| 20260503110616 | 62 | 162 | 5.0 | 13.0 | 0.31 | 8.07 | 1.61 | 88 | 1001.2 |
| 20260503081556 | 63 | 184 | 1.0 | 2.0 | 0.94 | 7.36 | 1.47 | 91 | 999.1 |
| 20260503081122 | 63 | 165 | 1.0 | 2.0 | 0.98 | 7.32 | 1.46 | 91 | 999.2 |
| 20260503080612 | 63 | 184 | 1.0 | 3.0 | 1.02 | 7.28 | 1.46 | 91 | 999.0 |
| 20260503072605 | 63 | 179 | 0.0 | 2.0 | 1.50 | 6.57 | 1.31 | 90 | 999.2 |
| 20260503072105 | 63 | 185 | 1.0 | 3.0 | 1.69 | 6.50 | 1.30 | 90 | 999.2 |
| 20260503071631 | 63 | 173 | 0.0 | 4.0 | 2.01 | 6.42 | 1.28 | 90 | 999.3 |
| 20260503071117 | 63 | 174 | 2.0 | 4.0 | 2.24 | 6.34 | 1.27 | 90 | 999.1 |
| 20260503070615 | 63 | 189 | 1.0 | 3.0 | 2.36 | 6.22 | 1.24 | 90 | 999.1 |
| 20260503060109 | 62 | 127 | 0.0 | 4.0 | 1.69 | 3.66 | 0.73 | 89 | 999.4 |
| 20260503055055 | 62 | 226 | 1.0 | 4.0 | 1.61 | 3.19 | 0.65 | 89 | 999.2 |
| 20260503054626 | 62 | 179 | 1.0 | 5.0 | 1.61 | 2.91 | 0.58 | 88 | 999.2 |
| 20260503054136 | 62 | 115 | 2.0 | 5.0 | 1.42 | 2.68 | 0.54 | 88 | 999.4 |
| 20260503053557 | 62 | 110 | 1.0 | 3.0 | 1.34 | 2.60 | 0.52 | 88 | 999.3 |
| 20260503053105 | 62 | 133 | 0.0 | 5.0 | 1.26 | 2.52 | 0.50 | 88 | 999.1 |
| 20260503052615 | 62 | 122 | 2.0 | 5.0 | 1.18 | 2.32 | 0.46 | 88 | 999.3 |
| 20260503051614 | 62 | 58 | 1.0 | 7.0 | 1.18 | 2.05 | 0.41 | 88 | 999.3 |
| 20260503051057 | 62 | 93 | 2.0 | 7.0 | 1.26 | 2.05 | 0.41 | 88 | 999.6 |
| 20260503050603 | 61 | 112 | 2.0 | 4.0 | 1.30 | 2.05 | 0.41 | 87 | 999.6 |
| 20260503050113 | 61 | 53 | 2.0 | 4.0 | 1.26 | 1.97 | 0.39 | 87 | 999.6 |
| 20260503045615 | 61 | 85 | 2.0 | 4.0 | 1.14 | 1.77 | 0.35 | 87 | 999.9 |
| 20260503045124 | 61 | 329 | 1.0 | 4.0 | 0.94 | 1.54 | 0.31 | 86 | 1000.0 |
| 20260503044613 | 61 | 128 | 1.0 | 3.0 | 0.75 | 1.30 | 0.26 | 86 | 1000.1 |
| 20260503044116 | 61 | 143 | 0.0 | 4.0 | 0.79 | 1.26 | 0.25 | 86 | 1000.1 |
| 20260503043605 | 61 | 139 | 1.0 | 4.0 | 0.83 | 1.26 | 0.25 | 86 | 1000.0 |
| 20260503043052 | 61 | 116 | 1.0 | 7.0 | 0.83 | 1.26 | 0.25 | 86 | 1000.1 |
| 20260503042617 | 61 | 72 | 3.0 | 7.0 | 0.67 | 1.10 | 0.22 | 85 | 1000.2 |
| 20260503042059 | 61 | 91 | 2.0 | 3.0 | 0.55 | 0.94 | 0.19 | 85 | 1000.4 |
| 20260503041606 | 61 | 105 | 1.0 | 3.0 | 0.43 | 0.83 | 0.17 | 85 | 1000.3 |
| 20260503041133 | 61 | 123 | 1.0 | 4.0 | 0.43 | 0.79 | 0.16 | 85 | 1000.4 |
| 20260503040554 | 61 | 333 | 1.0 | 4.0 | 0.39 | 0.75 | 0.15 | 85 | 1000.5 |
| 20260503040052 | 61 | 187 | 1.0 | 2.0 | 0.35 | 0.71 | 0.14 | 85 | 1000.8 |
| 20260503035602 | 61 | 172 | 1.0 | 2.0 | 0.31 | 0.63 | 0.13 | 85 | 1000.8 |
| 20260503035106 | 61 | 266 | 0.0 | 4.0 | 0.28 | 0.59 | 0.12 | 84 | 1001.0 |
| 20260503034615 | 61 | 210 | 1.0 | 4.0 | 0.24 | 0.55 | 0.11 | 84 | 1001.1 |
| 20260503034057 | 61 | 160 | 1.0 | 4.0 | 0.16 | 0.47 | 0.09 | 84 | 1001.1 |
| 20260503033607 | 61 | 146 | 1.0 | 4.0 | 0.16 | 0.43 | 0.09 | 84 | 1001.1 |
| 20260503033115 | 61 | 123 | 1.0 | 7.0 | 0.16 | 0.43 | 0.09 | 84 | 1001.3 |
| 20260503032556 | 61 | 173 | 1.0 | 7.0 | 0.12 | 0.39 | 0.08 | 84 | 1001.3 |
| 20260503032106 | 62 | 165 | 0.0 | 6.0 | 0.12 | 0.39 | 0.08 | 84 | 1001.3 |
| 20260503031612 | 62 | 148 | 2.0 | 6.0 | 0.08 | 0.35 | 0.07 | 84 | 1001.4 |
| 20260503031055 | 62 | 130 | 1.0 | 7.0 | 0.08 | 0.35 | 0.07 | 84 | 1001.4 |
| 20260503030606 | 62 | 114 | 3.0 | 7.0 | 0.08 | 0.35 | 0.07 | 84 | 1001.7 |
| 20260503030115 | 62 | 129 | 1.0 | 6.0 | 0.08 | 0.35 | 0.07 | 84 | 1001.9 |
| 20260503025558 | 62 | 109 | 2.0 | 9.0 | 0.04 | 0.31 | 0.06 | 85 | 1002.0 |
| 20260503025108 | 62 | 119 | 2.0 | 9.0 | 0.04 | 0.31 | 0.06 | 85 | 1002.0 |
| 20260503024638 | 62 | 145 | 3.0 | 7.0 | 0.08 | 0.31 | 0.06 | 84 | 1002.1 |